"startDT [UTC]","vpos","CH4 [ppm]","stdev(CH4) [ppm]","CO2 [ppm]","stdev(CO2) [ppm]","H2O [ppm]","stdev(H2O)","p_LGR [torr]","T_LGR [C]","mt1_LGR [us]","mt2_LGR [us]","T_ECpre [C]","T_EC1 [C]","T_EC2 [C]","p_inlet [hPa]","p_in [hPa]","p_out [hPa]","T_inlet [C]","RH_inlet [%]","dwpt_inlet [C]","T_vent [C]","RH_vent [%]","dwpt_vent [C]","flow_vent [l min-1]","flow_inlet [l min-1]","dwpt_sample [C]","T_room [C]"
2012-06-15 00:00:00,0.0,1.9059,0.0013,396.34,0.30,382.9,24.4,137.93,36.91,24.64,36.40,0.95,10.19,-25.60,-67,563,-939,32.5,17.2,4.4,32.4,0.8,-32.3,5.73,2.23,-25.1,36.3
2012-06-15 00:01:00,0.0,1.9062,0.0017,396.33,0.28,385.1,24.9,137.93,36.91,24.64,36.40,0.99,10.57,-25.59,-67,563,-939,32.4,17.2,4.4,32.4,0.8,-32.2,5.73,2.23,-25.1,36.4
2012-06-15 00:02:00,0.0,1.9040,0.0016,396.19,0.36,382.0,30.6,137.93,36.91,24.64,36.41,0.97,10.94,-25.57,-67,563,-939,32.5,17.0,4.2,32.4,0.8,-32.3,5.73,2.26,-25.1,36.3
2012-06-15 00:03:00,0.0,1.9066,0.0022,396.30,0.29,381.0,27.9,137.93,36.91,24.64,36.40,0.99,11.30,-25.57,-67,563,-939,32.5,16.9,4.2,32.4,0.8,-32.3,5.73,2.23,-25.1,36.4
2012-06-15 00:04:00,0.0,1.9054,0.0016,396.41,0.27,375.5,28.0,137.93,36.91,24.64,36.39,0.99,11.64,-25.56,-67,563,-939,32.5,16.7,4.0,32.4,0.8,-32.3,5.73,2.23,-25.2,36.4
2012-06-15 00:05:00,0.0,1.9058,0.0025,396.48,0.37,374.3,29.5,137.93,36.92,24.64,36.39,0.98,11.97,-25.56,-67,563,-939,32.5,17.3,4.5,32.4,0.8,-32.3,5.73,2.26,-25.2,36.4
2012-06-15 00:06:00,0.0,1.9062,0.0022,396.51,0.28,377.1,30.0,137.93,36.92,24.64,36.40,0.98,12.29,-25.54,-67,563,-939,32.5,16.7,4.0,32.4,0.8,-32.3,5.73,2.22,-25.2,36.4
2012-06-15 00:07:00,0.0,1.9076,0.0014,396.64,0.32,380.4,24.7,137.93,36.92,24.64,36.39,0.99,12.60,-25.54,-67,563,-939,32.5,17.3,4.5,32.4,0.8,-32.3,5.73,2.25,-25.2,36.4
2012-06-15 00:08:00,0.0,1.9085,0.0025,396.61,0.30,380.5,25.2,137.93,36.93,24.64,36.39,0.99,12.90,-25.53,-67,563,-939,32.4,17.7,4.8,32.4,0.8,-32.3,5.73,2.24,-25.2,36.5
2012-06-15 00:09:00,0.0,1.9077,0.0024,396.55,0.36,383.3,25.8,137.93,36.93,24.64,36.40,0.98,13.18,-25.53,-67,563,-939,32.5,17.8,4.9,32.4,0.8,-32.4,5.73,2.22,-25.1,36.4
2012-06-15 00:10:00,0.0,1.9117,0.0026,396.56,0.34,385.7,25.1,137.93,36.93,24.64,36.40,1.00,13.45,-25.52,-67,563,-939,32.5,18.9,5.7,32.4,0.8,-32.3,5.73,2.26,-25.2,36.5
2012-06-15 00:11:00,0.0,1.9133,0.0017,396.63,0.34,380.6,28.5,137.93,36.94,24.64,36.40,0.99,13.71,-25.51,-67,563,-939,32.4,19.6,6.3,32.4,0.8,-32.4,5.73,2.23,-25.1,36.5
2012-06-15 00:12:00,0.0,1.9155,0.0017,396.81,0.32,388.3,30.5,137.93,36.94,24.64,36.39,0.98,13.97,-25.50,-67,563,-939,32.5,19.8,6.4,32.4,0.8,-32.6,5.73,2.23,-25.1,36.4
2012-06-15 00:13:00,0.0,1.9145,0.0020,396.59,0.28,385.9,29.0,137.93,36.94,24.64,36.39,0.99,14.20,-25.50,-67,563,-939,32.5,19.3,6.1,32.4,0.8,-32.7,5.73,2.26,-25.2,36.5
2012-06-15 00:14:00,0.0,1.9122,0.0014,396.50,0.30,381.1,26.6,137.93,36.95,24.64,36.39,0.98,14.44,-25.49,-67,563,-939,32.5,19.2,6.0,32.5,0.8,-32.5,5.73,2.22,-25.2,36.4
2012-06-15 00:15:00,0.0,1.9110,0.0031,396.52,0.38,385.5,27.4,137.93,36.95,24.64,36.40,0.98,14.66,-25.48,-67,563,-939,32.5,18.5,5.5,32.5,0.8,-32.7,5.73,2.25,-25.2,36.5
2012-06-15 00:16:00,0.0,1.9125,0.0016,396.71,0.30,385.9,23.8,137.93,36.96,24.64,36.39,0.97,14.87,-25.47,-67,563,-939,32.5,19.1,5.9,32.5,0.8,-32.6,5.73,2.24,-25.2,36.5
2012-06-15 00:17:00,0.0,1.9110,0.0023,396.52,0.32,381.9,31.5,137.93,36.97,24.64,36.39,0.98,15.08,-25.47,-67,563,-939,32.5,18.3,5.4,32.5,0.8,-32.6,5.73,2.22,-25.2,36.5
2012-06-15 00:18:00,0.0,1.9114,0.0022,396.52,0.37,388.2,28.2,137.93,36.97,24.64,36.40,0.97,15.27,-25.46,-67,563,-939,32.5,18.0,5.1,32.5,0.8,-32.7,5.73,2.26,-25.2,36.5
2012-06-15 00:19:00,0.0,1.9107,0.0042,396.53,0.34,386.2,26.8,137.93,36.98,24.64,36.39,0.98,15.47,-25.46,-67,563,-940,32.5,18.5,5.5,32.5,0.8,-32.6,5.73,2.23,-25.2,36.4
2012-06-15 00:20:00,0.0,1.9083,0.0028,396.40,0.29,377.4,22.3,137.93,36.98,24.64,36.40,0.98,15.64,-25.45,-67,563,-939,32.5,18.3,5.4,32.5,0.8,-32.7,5.73,2.23,-25.2,36.5
2012-06-15 00:21:00,0.0,1.9092,0.0028,396.53,0.39,384.1,28.2,137.93,36.99,24.64,36.39,0.98,15.81,-25.45,-67,563,-939,32.5,17.8,5.0,32.5,0.8,-32.7,5.73,2.26,-25.2,36.5
2012-06-15 00:22:00,0.0,1.9144,0.0018,396.74,0.34,379.8,24.9,137.93,36.99,24.64,36.39,0.98,15.98,-25.45,-67,563,-939,32.5,19.3,6.1,32.5,0.8,-32.6,5.73,2.22,-25.2,36.5
2012-06-15 00:23:00,0.0,1.9104,0.0026,396.65,0.30,378.1,23.2,137.93,37.00,24.64,36.39,0.98,16.13,-25.44,-67,563,-939,32.6,17.8,5.0,32.5,0.8,-32.7,5.73,2.24,-25.2,36.5
2012-06-15 00:24:00,0.0,1.9083,0.0029,396.45,0.33,382.9,27.0,137.93,37.00,24.64,36.39,0.97,16.28,-25.43,-67,564,-939,32.6,18.2,5.3,32.5,0.8,-32.7,5.73,2.24,-25.2,36.5
2012-06-15 00:25:00,0.0,1.9124,0.0014,396.67,0.32,378.0,26.2,137.93,37.01,24.64,36.39,0.98,16.42,-25.43,-67,564,-939,32.6,18.8,5.7,32.5,0.8,-32.6,5.73,2.22,-25.2,36.5
2012-06-15 00:26:00,0.0,1.9123,0.0016,396.59,0.35,375.7,28.7,137.93,37.01,24.64,36.39,0.98,16.56,-25.42,-67,564,-939,32.6,18.5,5.5,32.5,0.8,-32.7,5.73,2.25,-25.2,36.5
2012-06-15 00:27:00,0.0,1.9096,0.0023,396.55,0.35,375.1,28.5,137.93,37.02,24.64,36.39,0.97,16.69,-25.42,-67,564,-939,32.6,18.5,5.5,32.5,0.8,-32.6,5.73,2.23,-25.2,36.4
2012-06-15 00:28:00,0.0,1.9089,0.0023,396.43,0.28,376.4,25.9,137.93,37.02,24.64,36.39,0.98,16.82,-25.41,-67,564,-939,32.6,17.8,5.0,32.5,0.8,-32.6,5.73,2.23,-25.2,36.5
2012-06-15 00:29:00,0.0,1.9083,0.0015,396.38,0.39,375.4,27.5,137.93,37.03,24.64,36.39,0.99,16.93,-25.41,-67,564,-939,32.6,17.3,4.6,32.5,0.8,-32.6,5.73,2.25,-25.2,36.4
2012-06-15 00:30:00,0.0,1.9057,0.0012,396.35,0.28,378.9,23.0,137.93,37.03,24.64,36.38,0.99,17.05,-25.40,-67,564,-939,32.6,17.2,4.5,32.5,0.8,-32.6,5.73,2.21,-25.3,36.5
2012-06-15 00:31:00,0.0,1.9055,0.0010,396.39,0.29,383.7,27.5,137.93,37.04,24.64,36.39,0.97,17.16,-25.40,-67,564,-939,32.6,17.2,4.5,32.5,0.8,-32.6,5.73,2.25,-25.3,36.5
2012-06-15 00:32:00,0.0,1.9067,0.0011,396.27,0.25,378.4,26.8,137.93,37.04,24.64,36.40,0.99,17.26,-25.40,-67,564,-939,32.6,17.3,4.6,32.5,0.8,-32.7,5.73,2.24,-25.3,36.5
2012-06-15 00:33:00,0.0,1.9067,0.0014,396.33,0.30,375.9,29.6,137.93,37.05,24.64,36.39,1.00,17.37,-25.39,-67,564,-939,32.6,17.4,4.7,32.5,0.8,-32.6,5.73,2.22,-25.2,36.6
2012-06-15 00:34:00,0.0,1.9034,0.0016,396.22,0.36,379.5,26.4,137.93,37.05,24.64,36.39,0.98,17.46,-25.39,-67,564,-939,32.6,16.7,4.1,32.5,0.8,-32.6,5.73,2.25,-25.2,36.6
2012-06-15 00:35:00,0.0,1.9056,0.0014,396.20,0.27,375.3,27.4,137.93,37.06,24.64,36.39,0.99,17.56,-25.39,-67,564,-939,32.6,17.1,4.5,32.5,0.8,-32.5,5.73,2.22,-25.3,36.5
2012-06-15 00:36:00,0.0,1.9062,0.0010,396.29,0.31,390.3,28.1,137.92,37.07,24.64,36.39,1.00,17.65,-25.39,-67,564,-939,32.6,17.3,4.6,32.6,0.8,-32.6,5.73,2.23,-25.3,36.5
2012-06-15 00:37:00,0.0,1.9061,0.0012,396.29,0.27,384.5,30.5,137.93,37.07,24.64,36.39,1.00,17.73,-25.38,-67,564,-939,32.7,17.6,4.9,32.6,0.8,-32.6,5.73,2.25,-25.2,36.6
2012-06-15 00:38:00,0.0,1.9048,0.0021,396.25,0.30,377.3,27.5,137.92,37.08,24.64,36.39,1.01,17.81,-25.37,-67,564,-939,32.7,16.7,4.2,32.6,0.8,-32.6,5.73,2.21,-25.2,36.5
2012-06-15 00:39:00,0.0,1.9044,0.0010,396.21,0.30,384.2,26.9,137.93,37.08,24.64,36.39,0.99,17.89,-25.37,-67,564,-939,32.7,17.0,4.4,32.6,0.8,-32.6,5.73,2.25,-25.2,36.6
2012-06-15 00:40:00,0.0,1.9043,0.0014,396.27,0.29,381.8,29.9,137.93,37.09,24.64,36.38,1.00,17.96,-25.37,-67,564,-939,32.7,17.2,4.6,32.6,0.8,-32.6,5.73,2.23,-25.2,36.5
2012-06-15 00:41:00,0.0,1.9030,0.0018,396.07,0.35,390.4,31.0,137.92,37.09,24.64,36.40,1.00,18.04,-25.36,-67,564,-939,32.7,16.5,4.0,32.6,0.8,-32.7,5.73,2.22,-25.2,36.6
2012-06-15 00:42:00,0.0,1.9023,0.0015,396.15,0.30,382.7,29.1,137.93,37.10,24.64,36.39,1.00,18.11,-25.36,-67,564,-939,32.7,16.1,3.6,32.6,0.8,-32.6,5.73,2.25,-25.3,36.6
2012-06-15 00:43:00,0.0,1.9003,0.0014,396.06,0.34,384.3,28.1,137.92,37.10,24.64,36.39,0.99,18.17,-25.36,-67,564,-939,32.7,15.8,3.4,32.6,0.8,-32.6,5.73,2.21,-25.2,36.6
2012-06-15 00:44:00,0.0,1.9023,0.0010,396.14,0.31,381.5,22.2,137.93,37.11,24.64,36.39,0.99,18.23,-25.35,-67,564,-939,32.7,16.2,3.8,32.6,0.8,-32.6,5.73,2.24,-25.3,36.5
2012-06-15 00:45:00,0.0,1.9012,0.0012,396.15,0.29,383.8,25.2,137.93,37.11,24.64,36.39,0.98,18.29,-25.35,-67,564,-939,32.7,15.9,3.5,32.6,0.8,-32.4,5.73,2.24,-25.3,36.6
2012-06-15 00:46:00,0.0,1.9015,0.0014,396.08,0.34,379.6,26.0,137.92,37.12,24.64,36.39,0.98,18.35,-25.35,-67,564,-939,32.7,16.1,3.7,32.6,0.8,-32.7,5.73,2.21,-25.3,36.6
2012-06-15 00:47:00,0.0,1.9036,0.0011,396.16,0.32,387.1,28.2,137.93,37.13,24.64,36.39,0.98,18.40,-25.34,-67,564,-939,32.7,17.0,4.4,32.6,0.8,-32.6,5.73,2.25,-25.3,36.6
2012-06-15 00:48:00,0.0,1.9038,0.0018,396.27,0.32,380.6,25.4,137.92,37.13,24.64,36.38,1.23,-3.10,-44.54,-67,564,-939,32.7,16.4,3.9,32.6,0.8,-32.5,5.41,2.29,-29.6,36.6
2012-06-15 00:49:00,0.0,1.9030,0.0012,396.18,0.31,379.5,31.1,137.93,37.13,24.64,36.39,0.96,18.51,-25.34,-67,564,-939,32.7,16.7,4.2,32.6,0.8,-32.8,5.73,2.23,-25.3,36.7
2012-06-15 00:50:00,0.0,1.9048,0.0012,396.22,0.26,378.2,27.6,137.93,37.14,24.64,36.39,0.98,18.56,-25.34,-67,564,-939,32.7,17.1,4.6,32.7,0.8,-32.9,5.73,2.24,-25.2,36.6
2012-06-15 00:51:00,0.0,1.9053,0.0013,396.12,0.34,380.8,27.6,137.92,37.14,24.64,36.39,0.97,18.60,-25.34,-67,564,-939,32.7,17.5,4.9,32.7,0.8,-32.9,5.73,2.21,-25.3,36.6
2012-06-15 00:52:00,0.0,1.9061,0.0009,396.14,0.28,380.0,26.7,137.93,37.15,24.64,36.39,0.98,18.65,-25.33,-67,564,-939,32.7,17.5,4.9,32.7,0.8,-32.8,5.73,2.25,-25.3,36.7
2012-06-15 00:53:00,0.0,1.9074,0.0008,396.12,0.31,379.6,26.7,137.93,37.15,24.64,36.39,0.98,18.70,-25.33,-67,564,-939,32.7,17.5,4.9,32.7,0.8,-33.0,5.73,2.23,-25.3,36.7
2012-06-15 00:54:00,0.0,1.9058,0.0011,396.13,0.29,384.2,30.4,137.92,37.16,24.64,36.39,0.98,18.74,-25.33,-67,564,-939,32.7,17.4,4.8,32.7,0.8,-32.9,5.73,2.22,-25.3,36.7
2012-06-15 00:55:00,0.0,1.9062,0.0010,396.04,0.27,381.3,27.7,137.93,37.16,24.64,36.39,0.98,18.77,-25.32,-67,564,-939,32.7,17.3,4.8,32.7,0.8,-32.9,5.73,2.25,-25.3,36.7
2012-06-15 00:56:00,0.0,1.9066,0.0010,396.05,0.33,394.6,22.1,137.93,37.16,24.64,36.38,0.98,18.81,-25.33,-67,564,-939,32.8,17.6,5.0,32.7,0.8,-32.9,5.73,2.21,-25.3,36.7
2012-06-15 00:57:00,0.0,1.9065,0.0008,396.05,0.30,385.6,28.4,137.92,37.17,24.64,36.39,0.99,18.85,-25.32,-67,564,-939,32.8,17.7,5.1,32.7,0.8,-33.0,5.73,2.24,-25.3,36.7
2012-06-15 00:58:00,0.0,1.9066,0.0011,396.10,0.29,388.0,29.0,137.93,37.18,24.64,36.39,1.00,18.88,-25.32,-67,564,-939,32.8,17.9,5.2,32.7,0.8,-32.9,5.73,2.23,-25.3,36.8
2012-06-15 00:59:00,0.0,1.9073,0.0012,396.17,0.29,388.3,27.9,137.92,37.19,24.64,36.38,1.00,18.92,-25.31,-67,564,-939,32.8,17.8,5.2,32.7,0.8,-32.9,5.73,2.21,-25.3,36.7
2012-06-15 01:00:00,0.0,1.9068,0.0009,396.16,0.30,381.8,27.7,137.92,37.19,24.64,36.38,0.98,18.95,-25.31,-67,564,-939,32.8,17.8,5.2,32.7,0.8,-32.9,5.73,2.25,-25.3,36.7
2012-06-15 01:01:00,0.0,1.9071,0.0010,396.13,0.28,384.7,26.5,137.93,37.19,24.64,36.38,0.99,18.98,-25.31,-67,564,-939,32.8,17.8,5.2,32.7,0.8,-32.9,5.73,2.21,-25.3,36.8
2012-06-15 01:02:00,0.0,1.9075,0.0011,396.26,0.33,385.5,26.0,137.92,37.20,24.64,36.39,1.00,19.01,-25.31,-67,564,-939,32.8,17.8,5.1,32.7,0.8,-32.9,5.73,2.23,-25.3,36.8
2012-06-15 01:03:00,0.0,1.9067,0.0010,396.00,0.30,387.2,30.3,137.92,37.20,24.64,36.39,0.99,19.04,-25.31,-67,564,-939,32.8,17.8,5.1,32.7,0.8,-32.9,5.73,2.24,-25.3,36.8
2012-06-15 01:04:00,0.0,1.9065,0.0010,396.02,0.33,388.1,29.6,137.93,37.20,24.64,36.39,0.99,19.06,-25.31,-67,564,-939,32.8,17.6,5.0,32.7,0.8,-32.9,5.73,2.21,-25.3,36.8
2012-06-15 01:05:00,0.0,1.9059,0.0011,396.12,0.23,389.1,27.7,137.92,37.21,24.64,36.38,1.00,19.09,-25.30,-67,564,-940,32.8,17.4,4.8,32.7,0.8,-32.9,5.73,2.25,-25.3,36.8
2012-06-15 01:06:00,0.0,1.9049,0.0011,396.05,0.34,385.5,29.7,137.93,37.22,24.64,36.38,1.01,19.11,-25.30,-67,565,-939,32.8,17.1,4.7,32.7,0.8,-32.8,5.73,2.22,-25.3,36.7
2012-06-15 01:07:00,0.0,1.9058,0.0009,396.09,0.31,385.8,32.7,137.92,37.22,24.64,36.38,1.01,19.14,-25.30,-67,565,-939,32.8,17.4,4.9,32.8,0.8,-32.8,5.73,2.22,-25.3,36.7
2012-06-15 01:08:00,0.0,1.9059,0.0009,396.09,0.28,383.4,28.5,137.92,37.23,24.64,36.39,1.00,19.16,-25.30,-67,564,-939,32.8,17.8,5.2,32.8,0.8,-32.8,5.73,2.24,-25.3,36.7
2012-06-15 01:09:00,0.0,1.9071,0.0009,396.20,0.32,382.1,25.0,137.93,37.23,24.64,36.38,0.99,19.18,-25.29,-67,565,-939,32.8,18.2,5.5,32.8,0.8,-32.9,5.73,2.21,-25.3,36.7
2012-06-15 01:10:00,0.0,1.9082,0.0011,396.20,0.30,385.4,32.3,137.92,37.24,24.64,36.39,0.99,19.21,-25.29,-67,564,-939,32.8,18.5,5.7,32.8,0.8,-32.8,5.73,2.24,-25.3,36.8
2012-06-15 01:11:00,0.0,1.9086,0.0013,396.28,0.28,384.7,29.6,137.92,37.25,24.64,36.38,0.97,19.22,-25.29,-67,564,-939,32.9,18.3,5.6,32.8,0.8,-32.9,5.73,2.22,-25.3,36.8
2012-06-15 01:12:00,0.0,1.9083,0.0012,396.21,0.31,386.8,28.7,137.92,37.25,24.64,36.39,0.99,19.24,-25.30,-67,564,-939,32.8,18.4,5.7,32.8,0.8,-32.8,5.73,2.22,-25.3,36.8
2012-06-15 01:13:00,0.0,1.9080,0.0010,396.25,0.32,384.3,26.0,137.92,37.26,24.64,36.38,0.98,19.27,-25.28,-67,565,-939,32.9,18.4,5.7,32.8,0.8,-32.8,5.73,2.24,-25.3,36.8
2012-06-15 01:14:00,0.0,1.9072,0.0014,396.27,0.34,388.5,33.6,137.92,37.28,24.64,36.38,0.98,19.28,-25.28,-67,565,-939,32.9,17.7,5.2,32.8,0.8,-32.9,5.73,2.21,-25.3,36.8
2012-06-15 01:15:00,0.0,1.9061,0.0012,396.12,0.30,381.8,27.8,137.93,37.28,24.64,36.39,0.97,19.29,-25.28,-67,565,-939,32.9,17.8,5.3,32.8,0.8,-32.8,5.73,2.24,-25.3,36.8
2012-06-15 01:16:00,0.0,1.9072,0.0013,396.10,0.36,384.1,28.2,137.92,37.29,24.64,36.38,0.98,19.31,-25.28,-67,565,-939,32.9,17.8,5.3,32.8,0.8,-32.8,5.73,2.22,-25.3,36.8
2012-06-15 01:17:00,0.0,1.9064,0.0008,396.24,0.28,383.9,25.9,137.92,37.29,24.64,36.38,0.97,19.33,-25.28,-67,565,-939,32.9,18.2,5.6,32.8,0.8,-32.9,5.73,2.21,-25.3,36.8
2012-06-15 01:18:00,0.0,1.9056,0.0010,396.13,0.33,385.1,32.4,137.92,37.30,24.64,36.38,0.99,19.35,-25.28,-67,565,-940,32.9,17.9,5.3,32.8,0.8,-32.8,5.73,2.24,-25.3,36.9
2012-06-15 01:19:00,0.0,1.9061,0.0009,396.08,0.28,382.0,24.1,137.92,37.30,24.64,36.39,0.99,19.36,-25.28,-67,565,-939,32.9,17.9,5.3,32.8,0.8,-32.8,5.73,2.20,-25.3,36.9
2012-06-15 01:20:00,0.0,1.9050,0.0013,396.12,0.38,386.5,29.2,137.92,37.30,24.64,36.38,0.98,19.38,-25.28,-67,565,-939,32.9,17.9,5.4,32.9,0.8,-32.9,5.73,2.24,-25.3,36.9
2012-06-15 01:21:00,0.0,1.9054,0.0011,396.11,0.27,385.4,26.6,137.92,37.31,24.64,36.39,1.16,18.91,-25.28,-67,565,-940,32.9,18.0,5.5,32.9,0.8,-32.8,5.73,2.22,-25.3,36.9
2012-06-15 01:22:00,0.0,1.9028,0.0016,395.88,0.28,382.1,30.6,137.92,37.31,24.64,36.39,1.15,17.04,-25.29,-67,565,-940,32.9,16.3,4.0,32.9,0.8,-32.8,5.73,2.21,-25.3,36.9
2012-06-15 01:23:00,0.0,1.9026,0.0013,396.02,0.28,393.5,22.7,137.92,37.31,24.64,36.38,0.97,14.73,-25.29,-67,565,-939,32.9,16.7,4.4,32.9,0.8,-32.9,5.73,2.24,-25.3,36.9
2012-06-15 01:24:00,0.0,1.9038,0.0013,396.07,0.28,388.6,28.4,137.92,37.32,24.64,36.38,1.13,12.39,-25.30,-67,565,-939,33.0,17.2,4.8,32.9,0.8,-32.7,5.73,2.21,-25.3,36.8
2012-06-15 01:25:00,0.0,1.9058,0.0013,396.15,0.30,381.8,28.9,137.92,37.33,24.64,36.38,1.13,10.11,-25.30,-67,565,-940,33.0,17.2,4.8,32.9,0.8,-32.8,5.73,2.23,-25.3,36.9
2012-06-15 01:26:00,0.0,1.9064,0.0012,396.06,0.30,392.1,30.6,137.92,37.33,24.63,36.39,1.12,7.93,-25.30,-67,565,-940,33.0,17.4,5.0,32.9,0.8,-32.7,5.73,2.22,-25.3,36.9
2012-06-15 01:27:00,0.0,1.9067,0.0011,396.21,0.35,393.1,31.9,137.92,37.35,24.64,36.38,1.03,5.84,-25.28,-67,565,-939,33.0,17.6,5.1,32.9,0.8,-32.8,5.73,2.21,-25.3,37.0
2012-06-15 01:28:00,0.0,1.9076,0.0009,396.25,0.27,389.1,29.2,137.92,37.35,24.64,36.38,1.09,3.87,-25.26,-67,565,-940,33.0,17.9,5.4,33.0,0.8,-32.7,5.73,2.24,-25.3,37.0
2012-06-15 01:29:00,0.0,1.9106,0.0013,396.46,0.33,388.8,30.5,137.92,37.36,24.64,36.38,1.15,1.99,-25.24,-67,565,-940,33.0,18.4,5.8,33.0,0.8,-32.8,5.73,2.20,-25.3,37.0
2012-06-15 01:30:00,0.0,1.9089,0.0011,396.33,0.28,394.7,27.6,137.92,37.36,24.64,36.38,1.06,0.21,-25.22,-67,565,-940,33.0,17.7,5.3,33.0,0.8,-32.7,5.73,2.23,-25.3,37.0
2012-06-15 01:31:00,0.0,1.9102,0.0017,396.37,0.35,392.7,26.5,137.92,37.37,24.64,36.38,1.05,-1.46,-25.20,-67,565,-939,33.0,18.4,5.8,33.0,0.8,-32.7,5.73,2.23,-25.3,37.0
2012-06-15 01:32:00,0.0,1.9120,0.0015,396.61,0.28,395.1,28.9,137.92,37.37,24.64,36.38,1.13,-3.04,-25.18,-67,565,-940,33.0,18.5,6.0,33.0,0.8,-32.8,5.73,2.20,-25.3,37.0
2012-06-15 01:33:00,0.0,1.9107,0.0016,396.34,0.32,394.2,24.9,137.92,37.38,24.64,36.39,1.12,-4.51,-25.16,-67,565,-940,33.1,17.7,5.3,33.0,0.8,-32.7,5.73,2.24,-25.2,37.0
2012-06-15 01:34:00,0.0,1.9096,0.0012,396.43,0.29,393.3,27.5,137.92,37.38,24.64,36.38,1.06,-5.87,-25.15,-67,565,-939,33.1,18.1,5.7,33.0,0.8,-32.8,5.73,2.20,-25.3,37.0
2012-06-15 01:35:00,0.0,1.9110,0.0015,396.45,0.27,400.6,29.4,137.92,37.39,24.64,36.39,1.06,-7.11,-25.14,-67,565,-939,33.1,18.5,6.0,33.0,0.8,-32.7,5.73,2.23,-25.2,37.0
2012-06-15 01:36:00,0.0,1.9122,0.0009,396.47,0.32,395.1,28.1,137.92,37.40,24.64,36.38,1.14,-8.21,-25.13,-68,565,-940,33.1,18.8,6.3,33.0,0.8,-32.8,5.73,2.22,-25.2,37.0
2012-06-15 01:37:00,0.0,1.9102,0.0028,396.28,0.37,391.7,26.0,137.92,37.41,24.64,36.39,1.10,-9.28,-25.11,-67,565,-940,33.1,17.5,5.2,33.0,0.8,-32.7,5.73,2.21,-25.2,37.1
2012-06-15 01:38:00,0.0,1.9086,0.0021,396.35,0.31,388.7,23.2,137.92,37.41,24.64,36.38,1.04,-10.10,-25.11,-68,565,-939,33.1,17.8,5.4,33.1,0.8,-32.7,5.73,2.23,-25.2,37.1
2012-06-15 01:39:00,0.0,1.9083,0.0010,396.20,0.31,395.0,26.2,137.92,37.42,24.64,36.39,1.06,-11.29,-25.10,-67,566,-940,33.1,17.5,5.2,33.1,0.8,-32.8,5.73,2.20,-25.2,37.1
2012-06-15 01:40:00,0.0,1.9093,0.0022,396.32,0.32,395.1,28.4,137.92,37.43,24.64,36.38,1.13,-12.28,-25.10,-67,566,-940,33.1,17.2,5.0,33.1,0.8,-32.8,5.73,2.22,-25.2,37.1
2012-06-15 01:41:00,0.0,1.9083,0.0022,396.14,0.34,394.0,28.5,137.92,37.43,24.64,36.39,1.11,-13.22,-25.10,-68,565,-940,33.2,17.7,5.4,33.1,0.8,-32.8,5.73,2.22,-25.2,37.1
2012-06-15 01:42:00,0.0,1.9086,0.0012,396.26,0.36,391.2,25.3,137.92,37.44,24.64,36.39,1.04,-14.03,-25.09,-68,566,-939,33.2,17.5,5.2,33.1,0.8,-32.7,5.73,2.20,-25.2,37.0
2012-06-15 01:43:00,0.0,1.9100,0.0010,396.44,0.20,400.8,24.5,137.92,37.46,24.64,36.38,1.06,-14.66,-25.09,-68,566,-940,33.2,17.8,5.5,33.1,0.8,-32.9,5.73,2.24,-25.2,37.1
2012-06-15 01:44:00,0.0,1.9105,0.0012,396.44,0.30,398.2,30.1,137.92,37.46,24.64,36.38,1.11,-15.47,-25.09,-68,566,-940,33.2,18.1,5.7,33.1,0.8,-32.7,5.73,2.20,-25.2,37.1
2012-06-15 01:45:00,0.0,1.9120,0.0011,396.52,0.35,397.8,28.4,137.92,37.47,24.64,36.38,1.12,-16.22,-25.09,-67,566,-939,33.2,18.1,5.8,33.1,0.8,-32.8,5.73,2.22,-25.2,37.1
2012-06-15 01:46:00,0.0,1.9131,0.0012,396.67,0.27,399.2,25.8,137.92,37.48,24.64,36.38,1.04,-16.90,-25.09,-67,566,-940,33.2,18.0,5.7,33.1,0.8,-32.8,5.73,2.22,-25.2,37.1
2012-06-15 01:47:00,0.0,1.9118,0.0012,396.58,0.28,394.9,27.2,137.92,37.49,24.64,36.38,1.03,-17.53,-25.10,-68,566,-940,33.2,17.7,5.5,33.2,0.8,-32.8,5.73,2.20,-25.2,37.2
2012-06-15 01:48:00,0.0,1.9107,0.0022,396.51,0.37,399.1,27.2,137.92,37.49,24.64,36.38,1.11,-18.12,-25.10,-67,566,-940,33.3,17.4,5.2,33.2,0.8,-32.8,5.73,2.23,-25.2,37.2
2012-06-15 01:49:00,0.0,1.9064,0.0013,396.28,0.30,400.1,27.9,137.92,37.50,24.64,36.38,1.12,-18.69,-25.11,-67,566,-940,33.3,16.4,4.4,33.2,0.8,-32.7,5.73,2.19,-25.2,37.2
2012-06-15 01:50:00,0.0,1.9083,0.0014,396.41,0.30,400.2,26.0,137.92,37.50,24.64,36.38,1.07,-19.23,-25.11,-68,566,-940,33.3,16.7,4.6,33.2,0.8,-32.7,5.73,2.22,-25.2,37.2
2012-06-15 01:51:00,0.0,1.9058,0.0013,396.36,0.33,405.9,30.2,137.92,37.51,24.64,36.37,1.03,-19.76,-25.12,-67,566,-940,33.3,16.5,4.4,33.2,0.8,-32.7,5.73,2.21,-25.2,37.2
2012-06-15 01:52:00,0.0,1.9082,0.0012,396.46,0.28,403.6,27.3,137.92,37.51,24.64,36.38,1.07,-20.24,-25.12,-68,566,-940,33.3,16.6,4.6,33.2,0.8,-32.7,5.73,2.20,-25.2,37.2
2012-06-15 01:53:00,0.0,1.9072,0.0030,396.32,0.36,397.0,24.5,137.92,37.52,24.64,36.38,1.10,-20.71,-25.13,-68,566,-940,33.3,16.8,4.8,33.2,0.8,-32.7,5.73,2.23,-25.2,37.2
2012-06-15 01:54:00,0.0,1.9084,0.0015,396.50,0.31,397.7,27.3,137.92,37.54,24.64,36.38,1.11,-21.15,-25.13,-67,566,-940,33.3,16.5,4.5,33.2,0.8,-32.7,5.73,2.19,-25.2,37.1
2012-06-15 01:55:00,0.0,1.9085,0.0020,396.47,0.31,398.0,25.3,137.92,37.55,24.64,36.38,1.06,-21.56,-25.14,-68,566,-940,33.3,16.8,4.8,33.2,0.8,-32.7,5.73,2.23,-25.3,37.1
2012-06-15 01:56:00,0.0,1.9066,0.0021,396.40,0.34,395.5,30.7,137.92,37.55,24.64,36.38,1.03,-21.95,-25.15,-68,566,-940,33.3,15.9,3.9,33.2,0.8,-32.7,5.73,2.20,-25.2,37.2
2012-06-15 01:57:00,0.0,1.9044,0.0011,396.28,0.33,399.8,27.7,137.92,37.56,24.64,36.38,1.05,-22.31,-25.16,-67,566,-940,33.3,15.6,3.7,33.2,0.8,-32.8,5.73,2.21,-25.2,37.2
2012-06-15 01:58:00,0.0,1.9058,0.0021,396.44,0.34,403.1,26.7,137.92,37.57,24.64,36.38,1.11,-22.66,-25.17,-68,566,-940,33.3,16.2,4.3,33.3,0.8,-32.6,5.73,2.22,-25.2,37.3
2012-06-15 01:59:00,0.0,1.9070,0.0019,396.41,0.28,399.0,25.2,137.92,37.57,24.64,36.38,1.11,-22.99,-25.18,-68,566,-940,33.3,16.0,4.1,33.3,0.8,-32.7,5.73,2.19,-25.2,37.3
2012-06-15 02:00:00,0.0,1.9065,0.0014,396.38,0.32,406.7,32.8,137.92,37.58,24.64,36.38,1.08,-23.30,-25.19,-68,566,-940,33.4,15.9,4.0,33.3,0.8,-32.7,5.73,2.23,-25.2,37.3
2012-06-15 02:01:00,0.0,1.9054,0.0014,396.36,0.26,416.6,26.7,137.91,37.60,24.64,36.37,1.03,-23.59,-25.19,-68,566,-940,33.4,15.6,3.7,33.3,0.8,-32.7,5.73,2.18,-25.2,37.3
2012-06-15 02:02:00,0.0,1.9046,0.0013,396.45,0.30,409.1,24.8,137.92,37.60,24.64,36.37,1.05,-23.86,-25.20,-67,566,-940,33.4,15.5,3.7,33.3,0.8,-32.7,5.73,2.21,-25.2,37.3
2012-06-15 02:03:00,0.0,1.9049,0.0012,396.32,0.28,396.3,24.0,137.92,37.61,24.63,36.37,1.08,-24.12,-25.21,-68,566,-940,33.4,15.5,3.7,33.3,0.8,-32.7,5.73,2.21,-25.2,37.3
2012-06-15 02:04:00,0.0,1.9047,0.0012,396.40,0.29,404.1,22.9,137.91,37.62,24.64,36.37,1.11,-24.36,-25.22,-68,566,-940,33.4,15.7,3.8,33.3,0.8,-32.7,5.73,2.19,-25.2,37.3
2012-06-15 02:05:00,0.0,1.9053,0.0009,396.45,0.36,406.0,27.8,137.92,37.63,24.63,36.38,1.08,-24.59,-25.23,-68,566,-940,33.4,15.6,3.7,33.3,0.7,-33.0,5.73,2.23,-25.2,37.3
2012-06-15 02:06:00,0.0,1.9049,0.0012,396.38,0.33,406.8,29.5,137.92,37.63,24.64,36.37,1.03,-24.80,-25.23,-68,567,-940,33.4,15.4,3.6,33.4,0.7,-33.1,5.73,2.19,-25.2,37.3
2012-06-15 02:07:00,0.0,1.9044,0.0010,396.42,0.33,407.9,28.9,137.92,37.64,24.64,36.38,1.02,-25.01,-25.24,-68,567,-940,33.4,15.3,3.5,33.3,0.7,-33.0,5.73,2.22,-25.2,37.3
2012-06-15 02:08:00,0.0,1.9071,0.0017,396.48,0.28,408.3,26.4,137.91,37.64,24.64,36.38,1.07,-25.19,-25.25,-68,567,-940,33.4,16.1,4.2,33.3,0.7,-32.9,5.73,2.20,-25.2,37.3
2012-06-15 02:09:00,0.0,1.9054,0.0013,396.51,0.32,409.5,30.8,137.91,37.65,24.64,36.37,1.07,-24.94,-25.26,-68,567,-940,33.5,15.4,3.6,33.4,0.7,-33.0,5.73,2.20,-25.2,37.4
2012-06-15 02:10:00,0.0,1.9047,0.0012,396.44,0.31,410.3,27.0,137.92,37.66,24.64,36.38,1.12,-24.84,-25.26,-68,567,-940,33.5,15.4,3.6,33.4,0.7,-32.9,5.73,2.21,-25.2,37.4
2012-06-15 02:11:00,0.0,1.9059,0.0023,396.37,0.25,406.1,29.7,137.91,37.67,24.63,36.38,1.07,-24.98,-25.27,-68,567,-940,33.5,15.8,4.0,33.4,0.7,-33.0,5.73,2.18,-25.2,37.4
2012-06-15 02:12:00,0.0,1.9070,0.0021,396.53,0.37,407.5,29.6,137.92,37.68,24.64,36.38,1.03,-25.16,-25.28,-68,567,-940,33.5,15.5,3.7,33.4,0.7,-33.0,5.73,2.22,-25.2,37.4
2012-06-15 02:13:00,0.0,1.9052,0.0019,396.43,0.30,408.2,26.4,137.91,37.69,24.64,36.38,0.97,-25.15,-25.29,-68,567,-940,33.5,15.9,4.2,33.4,0.7,-33.0,5.73,2.19,-25.2,37.4
2012-06-15 02:14:00,0.0,1.9080,0.0011,396.58,0.28,410.9,26.6,137.91,37.70,24.64,36.37,1.11,-24.86,-25.29,-68,567,-940,33.5,15.9,4.1,33.4,0.7,-33.0,5.73,2.21,-25.2,37.4
2012-06-15 02:15:00,0.0,1.9072,0.0013,396.57,0.31,403.6,27.1,137.91,37.70,24.64,36.37,1.10,-24.95,-25.31,-68,567,-940,33.5,16.1,4.3,33.4,0.7,-33.0,5.73,2.20,-25.2,37.4
2012-06-15 02:16:00,0.0,1.9063,0.0015,396.57,0.35,402.2,28.3,137.91,37.71,24.64,36.37,1.09,-25.12,-25.32,-68,567,-940,33.5,16.0,4.2,33.4,0.7,-32.9,5.73,2.19,-25.2,37.5
2012-06-15 02:17:00,0.0,1.9067,0.0014,396.58,0.37,407.9,28.2,137.91,37.72,24.64,36.37,1.02,-25.28,-25.33,-68,567,-940,33.5,15.7,4.0,33.5,0.7,-33.1,5.73,2.21,-25.2,37.5
2012-06-15 02:18:00,0.0,1.9063,0.0010,396.48,0.29,414.5,30.0,137.91,37.73,24.64,36.38,1.05,-24.98,-25.32,-68,567,-940,33.5,15.7,3.9,33.5,0.7,-33.0,5.73,2.18,-25.2,37.5
2012-06-15 02:19:00,0.0,1.9056,0.0011,396.40,0.31,412.0,25.8,137.91,37.74,24.64,36.38,1.02,-24.92,-25.33,-68,567,-940,33.6,15.8,4.1,33.5,0.8,-32.8,5.73,2.23,-25.2,37.5
2012-06-15 02:20:00,0.0,1.9063,0.0012,396.62,0.29,405.2,28.2,137.92,37.75,24.64,36.37,0.98,-25.08,-24.50,-68,567,-940,33.6,15.9,4.1,33.5,0.7,-33.1,5.73,2.19,-25.2,37.5